Flippin, AR

3:58 AM CST on February 21, 2017 (GMT -0600)
Marion County Regional

Weather History for KFLP - January, 2012

Change the Weather History Date:

Wednesday, January 4, 2012

  Actual Average Record
Temperature  
Mean Temperature 45 °F -  
Max Temperature 53 °F 45 °F 73 °F (1997)
Min Temperature 37 °F 26 °F 5 °F (1999)
Degree Days  
Heating Degree Days 20    
Moisture  
Dew Point 25 °F    
Average Humidity 50    
Maximum Humidity 60    
Minimum Humidity 35    
Precipitation  
Precipitation 0.00 in - - ()
Sea Level Pressure  
Sea Level Pressure 30.23 in    
Wind  
Wind Speed 7 mph (WNW)    
Max Wind Speed 13 mph    
Max Gust Speed 21 mph    
Visibility 10 miles    
Events      
Averages and records for this station are not official NWS values.
T = Trace of Precipitation, MM = Missing Value Source: NWS Daily Summary

Daily Weather History Graph

Daily Weather History Graph

Search for Another Location

Airport or City:

Trip Planner

Search our weather history database for the weather conditions in past years. The results will help you decide how hot, cold, wet, or windy it might be!

Date:

Astronomy

Jan. 04, 2012 Rise Set
Actual Time 7:22 AM CST 5:08 PM CST
Civil Twilight 6:53 AM CST 5:36 PM CST
Nautical Twilight 6:21 AM CST 6:08 PM CST
Astronomical Twilight 5:50 AM CST 6:40 PM CST
Moon 1:30 PM CST (1/4) 3:12 AM CST (1/4)
Length of Visible Light 10h 43m
Length of Day
9h 46m
Waxing Gibbous, 81% of the Moon is Illuminated
Jan 4
Waxing Gibbous
Jan 9
Full
Jan 16
Last Quarter
Jan 23
New
Jan 30
First Quarter

Hourly Weather History & Observations

Time (CST) Temp. Windchill Dew Point Humidity Pressure Visibility Wind Dir Wind Speed Gust Speed Precip Events Conditions
11:35 AM - - - N/A% 30.18 in 10.0 mi WNW 12.7 mph 18.4 mph N/A   Clear
3:55 PM - - - N/A% 30.15 in 10.0 mi NW 12.7 mph - N/A   Clear
4:15 PM - - - N/A% 30.16 in 10.0 mi NW 11.5 mph 20.7 mph N/A   Clear
4:35 PM - - - N/A% 30.17 in 10.0 mi NW 12.7 mph - N/A   Clear
4:55 PM - - - N/A% 30.18 in 10.0 mi WNW 6.9 mph - N/A   Clear
5:15 PM - - - N/A% 30.19 in 10.0 mi NNW 6.9 mph - N/A   Clear
5:35 PM 53.6 °F - 26.6 °F 35% 30.20 in 10.0 mi NW 9.2 mph - N/A   Clear
5:55 PM - - - N/A% 30.20 in 10.0 mi NW 5.8 mph - N/A   Clear
6:15 PM 50.0 °F - 26.6 °F 40% 30.22 in 10.0 mi NW 4.6 mph - N/A   Clear
6:35 PM 50.0 °F - 26.6 °F 40% 30.22 in 10.0 mi WNW 4.6 mph - N/A   Clear
6:55 PM - - - N/A% 30.23 in 10.0 mi NNW 5.8 mph - N/A   Clear
7:15 PM 48.2 °F - 26.6 °F 43% 30.24 in 10.0 mi WNW 3.5 mph - N/A   Clear
7:35 PM 46.4 °F 44.3 °F 26.6 °F 46% 30.25 in 10.0 mi WNW 4.6 mph - N/A   Clear
7:55 PM - - - N/A% 30.25 in 10.0 mi West 3.5 mph - N/A   Clear
8:15 PM 44.6 °F 43.1 °F 24.8 °F 46% 30.25 in 10.0 mi West 3.5 mph - N/A   Clear
8:35 PM - - - N/A% 30.25 in 10.0 mi Calm Calm - N/A   Clear
8:55 PM 41.0 °F 39.0 °F 24.8 °F 53% 30.27 in 10.0 mi WSW 3.5 mph - N/A   Clear
9:15 PM - - - N/A% 30.26 in 10.0 mi West 3.5 mph - N/A   Clear
9:35 PM - - - N/A% 30.26 in 10.0 mi WSW 3.5 mph - N/A   Clear
10:15 PM 39.2 °F 37.0 °F 24.8 °F 56% 30.28 in 10.0 mi West 3.5 mph - N/A   Clear
10:35 PM 37.4 °F - 24.8 °F 60% 30.27 in 10.0 mi Calm Calm - N/A   Clear
10:55 PM 39.2 °F 37.0 °F 24.8 °F 56% 30.27 in 10.0 mi SW 3.5 mph - N/A   Clear
11:15 PM 39.2 °F - 24.8 °F 56% 30.27 in 10.0 mi Calm Calm - N/A   Clear
11:35 PM 37.4 °F - 24.8 °F 60% 30.27 in 10.0 mi Calm Calm - N/A   Clear
11:55 PM 39.2 °F 37.0 °F 24.8 °F 56% 30.26 in 10.0 mi WSW 3.5 mph - N/A   Clear